Hourly Data Report for October 11, 2016

All times are specified in Local Standard Time (LST). Add 1 hour to adjust for Daylight Saving Time where and when it is observed.

KITCHENER/WATERLOO
ONTARIO

43°27'39.000" N
80°22'43.000" W
321.60 m
6144239
71368
YKF

Download Data

Hourly Data (October 2016)
Hourly Data Report for October 11, 2016
Temp Definition
°C
Dew Point Temp Definition
°C
Rel Hum Definition
%
Wind Dir Definition
10's deg

Wind Spd Definition
km/h
Visibility Definition
km
Stn Press Definition
kPa
Hmdx Definition


Wind Chill Definition


Weather Definition


TIME
00:00 Legend Double Dagger 0.9 0.3 96   0 16.1 99.05     LegendNANA
01:00 Legend Double Dagger 0.7 0.3 97 6 4 12.9 99.04     LegendNANA
02:00 Legend Double Dagger 0.4 0.1 98 7 5 16.1 99.03     LegendNANA
03:00 Legend Double Dagger 0.8 0.5 98 36 4 12.9 99.02     LegendNANA
04:00 Legend Double Dagger -0.2 -0.5 98 32 5 9.7 99.03   -2 Fog
05:00 Legend Double Dagger -0.9 -1.2 98 8 5 11.3 99.00   -3 LegendNANA
06:00 Legend Double Dagger -0.4 -0.7 98   0 6.4 99.03     Fog
07:00 Legend Double Dagger -0.2 -0.5 98 3 4 9.7 99.05   -1 Fog
08:00 Legend Double Dagger 3.5 3.1 97   0 16.1 99.05     LegendNANA
09:00 Legend Double Dagger 10.0 7.1 82 14 5 16.1 99.05     LegendNANA
10:00 Legend Double Dagger 13.4 8.6 73 17 8 16.1 99.02     LegendNANA
11:00 Legend Double Dagger 15.7 8.5 62 18 18 16.1 98.97     LegendNANA
12:00 Legend Double Dagger 16.6 6.1 50 17 13 16.1 98.85     LegendNANA
13:00 Legend Double Dagger 15.7 7.3 57 18 11 16.1 98.80     LegendNANA
14:00 Legend Double Dagger 16.1 7.8 58 16 13 16.1 98.74     LegendNANA
15:00 Legend Double Dagger 16.4 5.5 48 16 13 16.1 98.67     LegendNANA
16:00 Legend Double Dagger 16.2 5.6 49 16 17 16.1 98.64     LegendNANA
17:00 Legend Double Dagger 14.7 5.1 52 15 11 16.1 98.62     LegendNANA
18:00 Legend Double Dagger 10.9 6.8 76 11 13 16.1 98.58     LegendNANA
19:00 Legend Double Dagger 10.1 8.2 88 11 8 16.1 98.60     LegendNANA
20:00 Legend Double Dagger 9.4 8.3 93 10 5 16.1 98.53     LegendNANA
21:00 Legend Double Dagger 6.9 5.6 92 LegendMM 4 16.1 98.50     LegendNANA
22:00 Legend Double Dagger 6.4 5.8 96 3 4 16.1 98.51     LegendNANA
23:00 Legend Double Dagger 4.2 3.6 96 LegendMM 4 9.7 98.47     Fog

Notes on Data Quality.

Legend

  • E = Estimated
  • M = Missing
  • NA = Not Available
  • ‡ = Partner data that is not subject to review by the National Climate Archives
Date modified: